{"data":{"norad_id":65717,"intl_designator":"2025-214F","name":"GEESAT-6 05","alt_names":[],"object_type":"PAYLOAD","status":"ACTIVE","operator":null,"country":"PRC","launch_date":"2025-09-24","launch_site_code":"YSLA","launch_vehicle":null,"mission":null,"orbit_class":"UNKNOWN","rcs_meters":null,"size_class":null,"mass_kg":null,"dimensions":null,"purposes":[],"wikipedia_slug":null,"has_3d_model":false,"image_url":null,"decayed_at":null,"tle_current":{"epoch":"2026-05-25T03:25:30.234720Z","epoch_age_seconds":56553,"freshness":"FRESH","line1":"1 65717U 25214F   26145.14271105  .00001428  00000+0  20007-3 0  9995","line2":"2 65717  49.9809  55.1142 0012555 122.4133 237.8022 14.83277065 36083","mean_motion":14.83277065,"eccentricity":0.0012555,"inclination_deg":49.9809,"raan_deg":55.1142,"arg_perigee_deg":122.4133,"mean_anomaly_deg":237.8022,"bstar":0.00020007,"rev_number":3608,"period_min":97.082334378304,"perigee_km":610.2141781589,"apogee_km":627.78398686209,"semimajor_km":6997.1360825105,"source":"CELESTRAK","updated_at":"2026-05-25T13:38:05.627653Z"}}}